Wind_Speed
13 12 12 12 12 13 14 14 13 12 12 11 10 7 6 4 3 3 2 3 4 5 5 5 5 5 4 3 3 4 4 4 4 4 4 4 5 4 5 5 4 4 4 4 4 4 3 3 2
15 15 14 14 14 15 16 16 16 14 13 12 12 10 8 6 4 3 2 3 5 6 6 5 5 4 4 3 3 3 3 4 4 4 4 5 5 5 5 5 5 4 4 4 4 3 2 2 2
17 17 16 16 16 17 17 18 18 16 15 14 14 12 10 6 5 4 3 3 5 7 7 6 5 4 3 3 3 3 4 4 4 5 5 6 6 7 7 6 6 5 5 5 4 4 3 3 2
19 18 18 18 19 19 19 19 19 18 17 16 16 15 11 7 5 5 4 4 5 7 8 6 5 4 4 4 4 4 5 5 5 6 7 7 8 8 8 8 7 7 7 7 6 6 5 5 4
20 20 20 20 21 21 21 21 20 20 19 17 16 14 12 9 7 6 5 6 7 8 8 7 6 5 5 5 5 5 6 6 7 8 9 9 9 10 10 9 9 9 9 9 8 7 7 6 6
21 21 21 21 22 22 22 22 22 22 21 18 16 16 14 12 9 7 6 7 8 9 8 7 6 6 5 5 5 6 6 7 8 9 10 11 11 11 12 11 11 11 11 11 10 10 9 9 8
22 21 22 22 23 24 24 24 24 23 22 20 18 17 14 12 11 7 7 9 9 10 9 8 7 7 6 6 6 7 7 8 9 10 11 12 12 13 13 13 13 14 13 13 12 12 11 11 11
22 22 22 23 24 25 25 25 25 24 23 21 19 18 15 14 13 11 11 11 10 11 11 10 9 8 7 7 7 8 9 9 10 11 12 13 13 13 13 14 14 14 14 14 14 14 13 13 12
22 22 22 22 23 24 25 25 25 25 24 22 21 19 17 16 16 14 12 12 12 12 11 11 10 10 9 7 8 9 10 11 11 12 13 14 14 14 14 14 14 14 15 15 15 15 14 13 13
20 20 20 21 22 23 24 25 25 25 24 23 22 21 19 17 17 15 14 14 14 13 12 12 12 11 10 9 10 11 12 12 13 13 14 15 15 15 15 15 14 15 15 16 15 15 14 14 13
19 18 19 19 20 21 23 24 25 25 25 23 22 21 19 18 18 17 17 17 15 15 14 13 13 11 10 10 11 12 12 12 13 14 15 15 15 15 15 15 14 15 15 16 16 16 15 14 14
16 15 15 16 18 19 20 22 23 23 23 23 22 21 20 18 17 17 17 16 15 14 14 14 12 11 10 10 11 12 12 13 14 14 14 15 15 15 15 15 15 15 16 17 16 16 15 15 15
14 14 14 14 15 16 18 19 19 20 20 20 20 20 20 18 17 16 15 14 13 13 12 11 10 10 10 10 10 11 12 13 14 14 15 15 16 15 16 16 15 16 16 16 16 16 16 16 17
13 11 12 13 13 15 16 16 17 18 19 20 20 19 17 17 17 16 14 13 13 11 11 12 11 9 8 9 10 10 11 12 13 14 14 15 15 15 16 15 15 15 16 16 16 16 16 17 17
11 11 12 13 13 14 15 15 16 17 18 18 18 17 16 17 17 16 15 12 10 9 9 10 10 9 8 8 8 9 10 11 12 13 14 14 15 15 15 16 16 16 16 16 17 18 18 18 18
11 11 12 13 13 14 14 15 15 16 18 17 16 16 15 15 15 14 14 12 10 9 9 8 9 9 8 7 8 8 9 10 11 12 13 13 14 15 15 15 15 15 16 16 17 18 19 20 20
11 11 12 12 13 14 14 15 14 14 14 13 13 13 12 12 11 11 11 12 11 9 9 8 8 8 7 7 7 8 9 9 9 10 11 13 14 14 15 15 15 16 16 17 17 18 19 20 21
11 11 11 12 13 13 13 14 13 12 11 10 10 9 7 7 9 10 9 9 8 7 7 8 7 7 6 7 7 7 7 8 9 9 11 12 13 14 15 15 16 16 16 17 18 18 19 20 21
11 10 10 11 13 13 12 13 12 11 9 7 7 5 4 6 8 9 9 9 7 7 6 6 6 5 5 5 5 6 7 7 8 9 11 12 13 13 14 14 15 15 16 16 17 18 18 19 20
11 11 10 11 13 13 13 12 11 11 8 6 3 3 3 5 7 8 9 9 7 6 5 4 4 3 3 4 5 6 6 7 8 9 10 11 11 11 12 13 13 14 15 16 17 17 19 20 21
10 10 11 12 13 13 12 10 10 9 5 4 2 1 3 5 7 7 6 6 6 5 5 5 4 2 2 3 4 4 5 6 8 9 10 10 10 12 12 13 13 14 15 16 17 17 18 20 21
10 10 11 12 12 12 11 11 9 8 5 3 1 2 5 5 5 5 5 5 5 6 6 5 4 2 2 2 3 3 5 6 7 9 10 10 11 12 13 14 14 15 16 17 18 18 19 20 21
10 10 11 11 11 11 10 10 8 7 4 3 2 4 5 4 5 4 4 5 5 5 6 5 3 1 0 1 2 3 4 6 7 9 10 11 12 13 13 14 15 15 16 17 19 20 21 22 22
10 10 10 10 10 9 9 9 7 4 2 2 3 4 5 5 4 5 5 5 5 5 6 5 4 2 1 1 1 3 4 5 7 9 10 12 12 13 14 14 15 17 18 19 20 21 22 22 23
11 11 10 10 9 8 8 7 4 3 1 2 3 4 4 5 5 5 5 6 6 6 6 5 4 2 1 1 2 3 4 6 7 9 11 12 13 14 14 16 17 18 19 21 21 22 22 23 23
11 11 11 11 9 7 6 5 3 2 1 3 3 4 5 5 5 5 6 6 6 5 5 5 3 2 1 1 2 3 4 6 8 9 11 13 14 15 16 17 19 20 21 22 22 23 23 23 24
11 11 11 11 10 8 6 5 3 2 2 3 3 4 6 6 5 6 5 5 5 4 4 3 3 2 1 1 2 3 5 7 9 11 12 14 16 17 18 19 20 21 22 23 23 23 24 25 25
12 11 12 12 12 9 6 5 4 4 3 3 4 5 5 5 5 6 6 6 6 4 4 4 3 2 1 2 3 4 6 8 10 12 14 16 17 19 20 21 22 23 23 24 24 25 25 26 26
13 12 12 12 12 11 8 7 7 6 6 5 6 6 6 6 6 7 7 6 6 5 4 4 3 3 3 4 5 6 7 10 12 14 16 18 19 21 22 23 24 25 25 26 26 27 27 27 28
14 14 14 14 13 12 10 8 9 8 7 7 7 8 8 7 7 7 7 7 7 6 6 5 4 5 5 5 6 7 9 12 14 17 18 20 21 23 24 25 26 26 27 27 28 28 29 29 29
Wind_Direction
311 308 305 301 298 296 294 295 299 299 297 300 295 290 290 300 299 304 314 326 326 317 309 309 311 321 333 351 8 11 15 20 16 8 5 3 357 350 345 339 340 345 350 355 2 4 7 12 17
306 303 301 298 294 292 290 292 295 295 295 294 296 296 297 296 277 275 279 309 310 301 300 305 305 311 322 329 340 350 354 354 350 344 336 335 337 335 333 325 321 320 323 329 334 338 340 343 345
301 299 296 294 291 288 286 287 290 293 295 294 296 299 294 285 282 272 269 288 291 292 292 303 311 314 323 328 332 335 334 334 333 326 320 319 319 320 319 316 310 307 305 303 301 302 296 297 300
298 295 292 289 287 284 284 285 285 289 294 298 298 300 297 282 279 268 257 263 275 282 283 294 309 317 322 324 322 321 319 320 322 320 316 316 316 314 310 307 301 298 296 294 291 286 279 278 277
295 293 290 287 284 282 282 282 282 283 289 294 300 303 301 294 280 266 260 265 267 272 275 284 294 304 307 308 309 312 310 310 311 313 314 313 311 309 307 302 296 291 290 290 286 282 275 272 272
292 291 287 285 282 281 279 278 280 282 286 289 294 299 305 301 288 267 254 265 272 275 272 278 282 292 292 295 299 305 307 309 308 309 309 309 308 305 301 298 294 290 289 288 286 280 272 267 268
292 291 287 284 280 278 277 277 279 281 283 288 291 294 297 294 284 268 260 263 265 273 270 268 274 278 281 290 296 302 304 307 307 305 305 304 304 301 297 294 292 289 286 285 285 280 272 268 265
293 291 287 283 279 277 276 276 277 279 281 284 286 290 293 288 280 274 267 259 260 266 268 269 270 267 271 283 291 296 298 302 302 299 299 300 301 299 297 293 290 289 286 284 283 280 276 270 264
294 292 289 285 281 278 277 276 276 279 279 281 284 286 288 285 276 270 268 258 256 257 259 263 261 258 265 276 287 290 292 294 295 295 296 297 295 295 295 295 291 289 287 285 283 279 274 270 264
296 293 290 288 285 281 279 279 277 277 278 279 282 285 284 282 277 270 267 263 253 247 250 256 256 257 263 274 283 287 287 289 290 292 294 295 293 290 290 292 291 288 286 286 285 280 275 271 266
300 297 295 292 288 284 281 279 279 279 279 279 280 280 279 275 272 272 267 257 252 244 244 251 256 249 260 271 277 281 283 286 288 290 291 290 289 286 286 289 289 290 287 285 282 280 274 269 265
302 301 297 294 291 287 283 281 279 280 279 279 278 277 276 271 269 270 266 252 243 242 249 248 246 246 259 269 273 281 283 287 290 292 289 288 289 285 286 286 287 286 285 284 283 278 274 269 267
304 304 302 301 298 293 289 286 283 279 278 278 276 275 269 266 263 263 262 256 245 240 247 246 246 254 263 269 272 276 281 285 289 290 288 289 291 289 288 287 287 285 282 280 279 277 275 271 270
308 309 311 313 309 300 296 293 288 281 278 277 276 272 268 264 257 256 250 252 242 237 246 249 244 252 262 267 270 276 284 289 289 290 290 293 295 293 290 285 286 287 284 280 277 275 273 271 270
312 314 317 316 312 307 303 299 294 287 281 278 277 275 272 262 253 246 242 243 239 241 247 242 236 243 253 264 277 282 289 290 289 291 291 292 293 294 291 289 287 286 285 282 278 277 275 271 272
309 316 318 317 317 316 311 311 305 295 287 282 279 279 275 263 253 240 238 235 242 246 247 242 234 240 252 270 283 288 294 294 294 293 292 293 294 295 294 291 290 288 285 283 280 277 276 273 272
304 309 311 312 317 322 321 320 315 304 293 287 282 276 272 261 243 234 236 229 240 242 240 237 233 243 258 272 284 294 295 296 296 298 296 297 298 298 297 293 292 290 288 287 285 280 278 276 273
303 306 308 313 319 322 322 322 321 315 306 292 279 273 269 254 232 234 223 217 221 228 233 235 239 249 262 275 288 298 300 302 303 303 302 304 303 301 299 299 297 295 292 289 287 283 281 278 276
302 307 311 314 319 321 321 321 324 323 316 299 286 276 272 236 222 220 211 203 208 217 220 216 230 253 267 278 292 303 310 313 313 313 314 313 311 307 306 304 303 302 299 294 290 286 283 281 278
300 308 316 317 318 318 317 318 321 327 324 315 304 258 237 214 191 190 194 202 203 209 207 210 223 240 262 289 310 316 321 323 324 324 323 321 317 318 317 312 309 307 305 301 297 291 287 283 280
301 309 317 321 322 318 315 319 320 321 319 333 324 199 176 165 170 184 191 188 197 205 199 198 207 225 283 318 329 332 334 333 331 331 329 329 328 326 323 320 318 314 311 307 303 299 294 289 284
299 308 314 319 321 318 316 318 319 316 298 315 297 176 167 169 173 191 196 186 190 193 189 190 202 233 291 327 337 341 341 343 341 340 337 336 334 330 327 325 322 318 313 309 306 303 299 294 290
297 302 308 315 319 318 316 316 321 309 289 276 232 197 185 182 182 193 193 202 188 188 179 177 175 191 307 1 352 350 351 351 349 348 347 344 340 335 331 327 323 320 316 312 307 302 299 296 293
291 294 301 310 317 317 316 313 314 310 276 224 211 202 194 192 197 198 199 201 189 180 170 168 166 146 106 26 353 354 355 355 355 354 350 346 343 339 334 330 326 323 320 317 313 309 304 300 297
285 288 295 305 311 316 311 313 313 316 261 198 191 191 192 199 205 208 199 187 179 174 174 174 162 138 114 36 11 5 359 358 358 354 350 348 346 343 339 334 331 327 323 320 318 315 311 306 302
281 286 291 300 309 312 304 308 299 292 236 203 198 197 194 204 218 210 184 183 190 193 183 171 154 140 112 53 21 0 355 355 354 353 351 349 346 342 338 335 332 329 326 323 321 319 316 312 307
278 280 283 290 296 296 285 285 285 255 223 213 211 202 203 210 215 202 193 190 190 191 182 174 171 168 161 347 340 341 344 347 349 350 348 346 344 341 338 335 332 330 328 326 323 321 319 316 312
274 276 276 284 287 278 264 262 269 260 248 242 231 221 214 212 208 202 201 202 204 203 197 195 193 206 262 306 318 329 335 338 341 343 342 341 340 339 338 336 333 330 328 326 324 322 320 317 314
270 269 271 273 276 271 259 255 262 265 257 253 249 240 235 228 218 208 202 202 207 211 212 213 221 242 273 295 308 317 324 329 332 335 336 336 336 335 334 334 333 331 329 327 325 323 321 319 316
267 266 266 266 266 264 259 259 258 262 261 258 255 248 243 240 228 221 218 217 219 221 224 231 243 258 275 288 301 310 316 322 325 326 329 330 331 331 331 331 330 330 328 328 326 324 322 320 317
Height
5905 5904 5904 5903 5903 5902 5900 5899 5898 5897 5897 5896 5895 5895 5895 5894 5894 5897 5896 5895 5896 5896 5895 5895 5894 5894 5893 5893 5892 5892 5893 5893 5893 5894 5894 5894 5895 5895 5895 5895 5895 5895 5896 5896 5896 5896 5896 5896 5896
5903 5903 5903 5902 5901 5900 5899 5897 5896 5896 5896 5895 5894 5894 5894 5893 5892 5892 5893 5894 5895 5895 5895 5894 5893 5893 5892 5892 5892 5892 5892 5892 5893 5893 5893 5893 5894 5894 5894 5894 5894 5894 5895 5895 5895 5895 5895 5896 5896
5901 5901 5901 5900 5898 5898 5897 5895 5894 5894 5893 5893 5893 5892 5892 5891 5890 5891 5892 5893 5894 5894 5893 5893 5892 5892 5892 5891 5891 5891 5891 5892 5892 5892 5892 5892 5892 5892 5892 5893 5893 5893 5893 5894 5894 5894 5895 5895 5895
5899 5899 5899 5898 5896 5895 5894 5893 5892 5892 5892 5891 5891 5891 5889 5888 5889 5890 5891 5891 5892 5892 5892 5892 5891 5891 5891 5890 5890 5890 5890 5890 5891 5891 5891 5891 5891 5891 5891 5891 5891 5891 5892 5892 5893 5893 5894 5894 5894
5896 5896 5896 5894 5892 5892 5891 5890 5890 5890 5890 5890 5889 5888 5887 5887 5887 5888 5889 5890 5891 5891 5890 5890 5890 5890 5890 5889 5889 5889 5889 5889 5889 5889 5889 5889 5889 5889 5889 5889 5889 5889 5890 5890 5891 5891 5892 5892 5893
5893 5893 5892 5890 5889 5888 5888 5887 5887 5887 5887 5887 5887 5886 5885 5886 5886 5886 5887 5888 5888 5888 5888 5888 5888 5888 5888 5888 5888 5888 5888 5888 5888 5888 5888 5887 5887 5887 5887 5887 5887 5887 5887 5888 5888 5889 5890 5890 5891
5890 5889 5888 5887 5885 5884 5884 5884 5884 5884 5884 5885 5884 5884 5883 5883 5883 5884 5884 5885 5885 5886 5886 5885 5885 5886 5886 5886 5886 5886 5886 5886 5886 5886 5886 5885 5885 5884 5884 5884 5884 5884 5885 5885 5885 5886 5887 5888 5889
5886 5886 5884 5882 5881 5880 5880 5879 5879 5880 5881 5881 5882 5881 5881 5881 5881 5881 5882 5882 5883 5883 5883 5883 5883 5883 5884 5884 5885 5885 5884 5884 5884 5884 5883 5883 5882 5882 5882 5881 5881 5882 5882 5882 5882 5883 5883 5885 5886
5882 5882 5879 5878 5877 5876 5875 5875 5876 5876 5877 5877 5878 5878 5879 5878 5878 5878 5879 5879 5880 5880 5880 5880 5880 5881 5881 5882 5882 5882 5882 5882 5881 5881 5881 5880 5880 5879 5879 5879 5878 5878 5879 5879 5879 5879 5880 5881 5882
5878 5877 5875 5874 5873 5872 5871 5871 5871 5872 5872 5873 5873 5874 5874 5874 5874 5875 5875 5876 5876 5877 5877 5877 5878 5878 5879 5879 5879 5880 5879 5879 5879 5879 5878 5877 5877 5877 5877 5876 5876 5876 5876 5876 5876 5876 5877 5878 5879
5874 5873 5872 5870 5869 5868 5867 5867 5867 5867 5868 5869 5869 5869 5869 5869 5870 5870 5871 5871 5872 5873 5874 5874 5875 5875 5876 5876 5877 5877 5877 5876 5876 5876 5875 5875 5874 5874 5874 5873 5873 5873 5873 5872 5872 5873 5873 5874 5876
5871 5870 5868 5867 5865 5865 5864 5863 5863 5863 5864 5864 5865 5865 5865 5865 5866 5866 5866 5867 5867 5869 5871 5872 5872 5872 5872 5873 5873 5873 5873 5874 5873 5873 5872 5872 5871 5871 5871 5870 5870 5869 5869 5869 5869 5869 5870 5871 5872
5868 5867 5866 5864 5863 5861 5860 5860 5859 5858 5858 5858 5859 5859 5859 5860 5861 5861 5861 5862 5864 5866 5868 5869 5869 5870 5870 5870 5870 5870 5870 5871 5871 5870 5869 5869 5868 5868 5868 5867 5867 5867 5866 5866 5866 5866 5867 5868 5869
5866 5865 5864 5862 5860 5859 5857 5856 5855 5854 5853 5853 5853 5853 5854 5854 5856 5857 5858 5859 5860 5862 5864 5866 5867 5867 5867 5868 5868 5868 5868 5868 5868 5867 5867 5866 5865 5865 5864 5864 5864 5863 5863 5863 5863 5863 5864 5865 5865
5864 5864 5862 5860 5858 5856 5855 5853 5851 5850 5848 5848 5848 5848 5849 5850 5851 5852 5853 5854 5856 5859 5860 5862 5863 5864 5865 5865 5865 5865 5865 5865 5865 5865 5864 5863 5863 5862 5861 5861 5861 5861 5860 5860 5860 5860 5860 5861 5861
5863 5862 5860 5858 5856 5853 5853 5850 5848 5846 5844 5843 5844 5844 5844 5845 5846 5848 5849 5851 5854 5856 5857 5859 5861 5862 5862 5862 5863 5863 5863 5863 5863 5862 5862 5861 5860 5859 5858 5858 5858 5858 5857 5857 5856 5857 5857 5857 5857
5862 5861 5858 5857 5854 5851 5849 5847 5845 5842 5841 5840 5840 5840 5840 5841 5842 5844 5846 5849 5851 5853 5854 5856 5858 5859 5860 5861 5861 5861 5861 5861 5861 5860 5860 5858 5857 5856 5856 5855 5855 5854 5854 5853 5853 5853 5853 5853 5853
5861 5859 5857 5855 5852 5850 5848 5846 5843 5841 5839 5838 5837 5837 5837 5838 5840 5843 5844 5847 5848 5850 5852 5854 5856 5857 5858 5859 5859 5859 5859 5859 5858 5858 5857 5856 5855 5854 5853 5852 5851 5851 5850 5850 5849 5849 5849 5849 5849
5859 5857 5855 5853 5851 5848 5846 5844 5843 5840 5838 5837 5836 5836 5836 5837 5839 5841 5843 5845 5847 5849 5851 5853 5854 5856 5856 5857 5857 5857 5857 5857 5856 5856 5854 5853 5852 5851 5849 5849 5848 5847 5846 5846 5845 5845 5844 5844 5844
5857 5855 5853 5851 5849 5847 5845 5843 5841 5839 5837 5836 5835 5835 5836 5837 5838 5840 5843 5845 5847 5848 5850 5851 5853 5854 5855 5855 5855 5855 5855 5855 5854 5853 5852 5851 5849 5848 5847 5846 5845 5844 5843 5842 5841 5840 5840 5839 5839
5855 5854 5852 5850 5847 5845 5843 5842 5840 5838 5837 5836 5835 5835 5836 5838 5839 5841 5842 5843 5845 5847 5848 5850 5852 5853 5853 5853 5853 5853 5853 5853 5853 5852 5851 5849 5847 5846 5845 5844 5842 5841 5840 5839 5837 5836 5835 5834 5834
5853 5852 5850 5848 5846 5844 5843 5841 5839 5837 5836 5836 5836 5836 5837 5838 5839 5840 5841 5842 5844 5846 5847 5849 5851 5851 5852 5852 5852 5852 5852 5852 5851 5850 5849 5847 5845 5844 5843 5841 5839 5838 5836 5835 5833 5832 5830 5829 5828
5851 5850 5849 5847 5845 5843 5841 5840 5839 5836 5836 5836 5836 5836 5838 5838 5839 5840 5841 5842 5844 5845 5846 5848 5849 5850 5851 5851 5851 5851 5851 5851 5850 5849 5847 5845 5843 5842 5840 5838 5836 5835 5833 5831 5829 5827 5825 5824 5822
5849 5849 5847 5846 5844 5843 5841 5839 5838 5836 5836 5835 5835 5836 5837 5838 5839 5840 5841 5842 5843 5844 5845 5847 5848 5849 5850 5850 5850 5850 5850 5849 5848 5847 5845 5844 5842 5840 5838 5835 5833 5831 5829 5827 5825 5822 5820 5818 5816
5847 5847 5846 5845 5843 5842 5840 5838 5838 5836 5836 5836 5836 5836 5837 5838 5839 5840 5841 5842 5843 5844 5845 5846 5847 5848 5849 5849 5849 5849 5849 5848 5847 5845 5844 5842 5840 5837 5835 5833 5830 5828 5825 5823 5820 5817 5815 5812 5810
5845 5845 5845 5844 5842 5841 5839 5838 5839 5837 5836 5836 5836 5837 5837 5838 5839 5840 5841 5842 5843 5844 5845 5845 5846 5847 5847 5848 5848 5848 5847 5846 5845 5843 5841 5839 5837 5835 5832 5830 5827 5824 5821 5818 5815 5812 5809 5806 5804
5842 5842 5843 5842 5841 5840 5839 5839 5839 5838 5838 5837 5837 5838 5838 5839 5839 5839 5840 5841 5842 5843 5844 5844 5845 5846 5846 5847 5846 5846 5845 5844 5843 5841 5839 5837 5834 5832 5829 5826 5823 5820 5817 5814 5810 5807 5804 5801 5798
5840 5840 5840 5840 5839 5839 5839 5838 5839 5838 5838 5838 5838 5838 5838 5839 5839 5839 5840 5841 5842 5842 5843 5844 5845 5845 5845 5845 5845 5844 5843 5842 5840 5838 5836 5834 5831 5828 5825 5822 5819 5815 5812 5808 5805 5802 5798 5795 5791
5837 5838 5837 5837 5837 5837 5837 5840 5838 5838 5837 5837 5837 5838 5838 5838 5839 5839 5839 5840 5841 5841 5842 5843 5843 5843 5843 5843 5843 5842 5841 5839 5838 5836 5833 5831 5828 5825 5821 5818 5814 5811 5807 5803 5800 5796 5792 5788 5785
5833 5834 5835 5835 5835 5835 5836 5839 5836 5836 5836 5836 5836 5836 5837 5837 5838 5838 5839 5839 5840 5841 5841 5841 5842 5841 5841 5841 5840 5839 5838 5837 5835 5832 5830 5827 5824 5820 5817 5813 5809 5806 5802 5798 5794 5790 5786 5782 5778